Retour au catalogue

BREEZE-M DEB

LostHEO
NORAD 38584·DEBRIS·🇷🇺 Russia

Lancé Mar 14, 2008 depuis Baikonur Cosmodrome

Loading…

Prochains Passages (prochaines 24 heures)

TLE

PériméSource: Space-Track

Époque: Oct 6, 2025, 08:47 UTC

1 38584U 08011AF  25279.36644280 -.00000186  00000-0 -38402-2 0  9992
2 38584  48.7262  28.7994 6398842 240.3794  63.4982  3.06504176123018

Suivez BREEZE-M DEB en temps réel avec AllMySat

Download on the App Store